This demonstration page uses our WeatherBlox Daily Observations layout. Learn more.

Left ArrowRight Arrow

36.19886, -115.1175

Hourly Observations for February 2, 2021

Temp ( °F °C ) Dew Point ( °F °C ) Humidity (%) Winds ( mph kmh ) Pressure ( in mb ) Visibility ( mi km ) Precip ( " mm )
12:53 am 00:53 Clear 49 9.4 30 -1.1 48 48 NW 3 6 30.14 1021 10 16 N/A
1:53 am 01:53 Clear 48 8.9 30 -1.1 50 50 NW 6 9 30.14 1021 10 16 N/A
2:53 am 02:53 Clear 47 8.3 30 -1.1 52 52 NW 5 7 30.14 1021 10 16 N/A
3:53 am 03:53 Clear 47 8.3 29 -1.7 50 50 WNW 6 9 30.13 1020 10 16 N/A
4:53 am 04:53 Clear 47 8.3 30 -1.1 52 52 NW 7 11 30.13 1020 10 16 N/A
5:53 am 05:53 Mostly Cloudy 46 7.8 30 -1.1 54 54 WNW 7 11 30.13 1020 10 16 N/A
6:53 am 06:53 Partly Cloudy 47 8.3 30 -1.1 52 52 W 3 6 30.14 1021 10 16 N/A
7:53 am 07:53 Mostly Cloudy 48 8.9 31 -0.6 52 52 N N/A 30.15 1021 10 16 N/A
8:53 am 08:53 Cloudy 53 11.7 31 -0.6 43 43 N N/A 30.16 1021 10 16 N/A
9:53 am 09:53 Mostly Sunny 55 12.8 30 -1.1 38 38 ESE 3 6 30.15 1021 10 16 N/A
10:53 am 10:53 Sunny 60 15.6 30 -1.1 32 32 SSE 5 7 30.14 1021 10 16 N/A
11:53 am 11:53 Sunny 62 16.7 30 -1.1 30 30 SSE 3 6 30.09 1019 10 16 N/A
12:53 pm 12:53 Sunny 64 17.8 30 -1.1 28 28 E 6 9 30.06 1018 10 16 N/A
1:53 pm 13:53 Sunny 65 18.3 31 -0.6 28 28 ESE 5 7 30.04 1017 10 16 N/A
2:53 pm 14:53 Sunny 67 19.4 32 undefined 27 27 ESE 7 11 30.01 1016 10 16 N/A
3:53 pm 15:53 Sunny 67 19.4 33 0.6 28 28 ESE 6 9 30.01 1016 10 16 N/A
4:53 pm 16:53 Sunny 65 18.3 35 1.7 33 33 E 6 9 30.00 1016 10 16 N/A
5:53 pm 17:53 Clear 63 17.2 36 2.2 37 37 NNW 3 6 30.01 1016 10 16 N/A
6:53 pm 18:53 Clear 62 16.7 36 2.2 38 38 N N/A 30.02 1017 10 16 N/A
7:53 pm 19:53 Clear 59 15 36 2.2 42 42 N N/A 30.01 1016 10 16 N/A
8:53 pm 20:53 Clear 58 14.4 37 2.8 46 46 E 3 6 30.01 1016 10 16 N/A
9:53 pm 21:53 Clear 57 13.9 37 2.8 47 47 ENE 5 7 30.00 1016 10 16 N/A
10:53 pm 22:53 Clear 57 13.9 38 3.3 49 49 E 3 6 29.99 1016 10 16 N/A
11:53 pm 23:53 Clear 56 13.3 38 3.3 51 51 SE 6 9 29.99 1016 10 16 N/A

Powered by AerisWeather